Regional Weather Roundup
Issued by NWS

Home | Current Version | Previous Version | Graphics & Text | Print | Product List | Glossary On
Versions: 1 2 3 4 5 6 7 8 9 10 11 12 13 14 15 16 17 18 19 20 21 22 23 24 25 26 27 28 29 30 31 32 33 34 35 36 37 38 39 40 41 42 43 44 45 46 47 48 49 50
000
ASUS43 KMKX 282300
RWRWI

WISCONSIN REGIONAL WEATHER ROUNDUP
NATIONAL WEATHER SERVICE MILWAUKEE/SULLIVAN WI
600 PM CDT SAT MAY 28 2016

NOTE: "FAIR" INDICATES FEW OR NO CLOUDS BELOW 12,000 FEET WITH NO
SIGNIFICANT WEATHER AND/OR OBSTRUCTIONS TO VISIBILITY.

WIZ001-002-006>008-014>016-023>028-290000-
NORTHWEST WISCONSIN

CITY           SKY/WX    TMP DP  RH WIND       PRES   REMARKS
SUPERIOR ARPT  CLOUDY    52  50  93 NE3       29.81S
ASHLAND        RAIN      58  54  86 CALM      29.80R
HAYWARD        CLOUDY    69  61  75 VRB5      29.78S
SIREN          LGT RAIN  63  61  93 NW6       29.79S
CUMBERLAND     CLOUDY    64  61  88 W6        29.78S
RICE LAKE      PTSUNNY   69  61  75 CALM      29.78S
CHETEK         PTSUNNY   71  63  75 SE3       29.76F
LADYSMITH      PTSUNNY   74  62  65 SW5       29.79S
EAU CLAIRE     NOT AVBL
MENOMONIE      PTSUNNY   75  69  82 S14G21    29.74S
NEW RICHMOND   CLOUDY    65  63  94 N6        29.78S
OSCEOLA        CLOUDY    64  64 100 N5        29.80S
$$

WIZ003>005-009-010-017-018-290000-
NORTH CENTRAL WISCONSIN

CITY           SKY/WX    TMP DP  RH WIND       PRES   REMARKS
MANITOWISH WTR NOT AVBL
ARBOR VITAE    CLOUDY    67  65  93 SW7       29.81R
WOODRUFF       CLOUDY    67  65  93 SW7       29.81R
RHINELANDER    MOSUNNY   74  63  68 W12G18    29.81S
EAGLE RIVER      N/A     68  64  87 SW10G17   29.81R
LAND O LAKES   LGT RAIN  67  65  96 SW7G16    29.79R
PHILLIPS       PTSUNNY   69  66  92 SW3       29.79S
TOMAHAWK       SUNNY     73  63  71 W5        29.81S
MEDFORD        MOSUNNY   73  63  70 SW9       29.79F
MERRILL        LGT RAIN  70  66  85 SW6       29.81R
$$

WIZ029-030-035-036-043>047-290000-
CENTRAL WISCONSIN

CITY           SKY/WX    TMP DP  RH WIND       PRES   REMARKS
WAUSAU         SUNNY     77  59  53 S13G20    29.78S
MOSINEE        PTSUNNY   75  61  60 S10       29.80
MARSHFIELD     MOSUNNY   76  60  57 S13       29.79R
STEVENS POINT  MOSUNNY   78  58  51 SW12      29.80S
WAUPACA        MOSUNNY   84  64  50 S9        29.79F HX  85
WAUTOMA        MOSUNNY   80  62  54 S9G16     29.80R HX  81
WISC RAPIDS    CLOUDY    77  59  53 SW6       29.80S
CAMP DOUGLAS   LGT RAIN  75  70  83 S5        29.78R
$$

WIZ011>013-019>022-031-037>040-048>050-290000-
NORTHEAST WISCONSIN

CITY           SKY/WX    TMP DP  RH WIND       PRES   REMARKS
ANTIGO         MOSUNNY   75  60  60 SW17G24   29.82R
SHAWANO        PTSUNNY   81  63  54 SW5       29.80S HX  82
OCONTO         PTSUNNY   78  69  74 SE9       29.79S
STURGEON BAY   NOT AVBL
GREEN BAY      MOSUNNY   81  64  56 S14       29.80S HX  82
MANITOWOC      NOT AVBL
APPLETON       PTSUNNY   81  59  47 S20       29.79F HX  81
CLINTONVILLE   MOSUNNY   81  63  54 SW9       29.79S HX  82
OSHKOSH        SUNNY     78  63  59 S15       29.81S HX  80
$$

WIZ032>034-041-042-053>061-290000-
SOUTHWEST WISCONSIN

CITY           SKY/WX    TMP DP  RH WIND       PRES   REMARKS
LA CROSSE      CLOUDY    70  65  84 S9        29.75F
SPARTA         CLOUDY    76  62  60 S3        29.78R
VIROQUA        CLOUDY    69  63  81 S8G25     29.84R
BOSCOBEL       TSTM      71  64  78 S7        29.79S
PRAIRIE DU CHI RAIN      68  62  79 S9G17     29.80R
PLATTEVILLE    CLOUDY    67  64  91 E7        29.81F
$$

WIZ056-057-062-063-064-067-068-290000-
SOUTH CENTRAL WISCONSIN

CITY           SKY/WX    TMP DP  RH WIND       PRES   REMARKS
REEDSBURG      MOSUNNY   76  63  62 S5        29.78S
BARABOO/DELLS  MOSUNNY   77  60  54 S8        29.79S
LONE ROCK      NOT AVBL
MINERAL POINT  NOT AVBL
MADISON        PTSUNNY   81  60  48 S18G25    29.78F HX  82
MIDDLETON      PTSUNNY   81  60  48 S9        29.81R HX  81
WATERTOWN      MOSUNNY   80  65  59 S10       29.81F HX  82
MONROE         PTSUNNY   79  59  50 S20G32    29.80S HX  80
JANESVILLE     MOSUNNY   84  57  39 S17G24    29.81F HX  83
$$

WIZ051-052-058>065-066-070>072-290000-
SOUTHEAST WISCONSIN

CITY           SKY/WX    TMP DP  RH WIND       PRES   REMARKS
MILWAUKEE      MOSUNNY   78  62  57 SE12G21   29.85F HX  80
WAUKESHA       MOSUNNY   79  61  53 S15G25    29.86S HX  80
MILWAUKEE/TIMM NOT AVBL
RACINE         SUNNY     73  60  63 S13       29.88F
BURLINGTON     MOSUNNY   82  61  49 S10G21    29.85F HX  82
KENOSHA        MOSUNNY   81  64  56 S14G24    29.86F HX  82
FOND DU LAC    MOSUNNY   81  64  56 S12G18    29.82R HX  82
SHEBOYGAN      SUNNY     74  62  66 S20G32    29.85R
WEST BEND      SUNNY     81  61  50 S12G17    29.84S HX  81
JUNEAU         MOSUNNY   80  62  53 S14G22    29.83F HX  81
$$

LSZ147-162-290000-
LAKE SUPERIOR

STATION/POSITION TIME  TEMP    WIND        PRES    WAVE
                       AIR SEA DIR/SP/G            HT/PER
                 (UTC) (F)     (DEG/KT/KT) (MB)    (FT/S)
W MID LAKE BUOY  2150   41 38  350/  4/  6 1008.7F   1/ 3
DEVILS ISLAND    2200   45     320/  6/  7 1009.5R
SAXON HARBOR     2240   49     310/  3/  4 1009.1R
$$

LMZ867-665-643>646-290000-
LAKE MICHIGAN

STATION/POSITION TIME  TEMP    WIND        PRES    WAVE
                       AIR SEA DIR/SP/G            HT/PER
                 (UTC) (F)     (DEG/KT/KT) (MB)    (FT/S)
CHAMBERS ISLAND  2200   72     150/  7/ 13 1009.5F
N MID LAKE BUOY  2150   54 46  190/ 16/ 17 1010.7S   4/ 5
NORTHPORT PIER   2200   64     160/  9/ 14 1010.5S
SISTER BAY       2220   70     180/ 21/ 25   N/A
ALGOMA LAKESHORE 2217          220/ 13/ 16   N/A
KEWAUNEE LAKESHO 2200          180/ 13/ 15   N/A
SHEBOYGAN LAKESH 2200   59     180/ 19/ 20 1011.0F
PORT WASHINGTON  2200   63     190/  9/ 14 1011.5F
S MID LAKE BUOY  2150   58 50  160/ 10/ 12 1012.5F   1/ 4
KENOSHA   LAKESH 2200   60     170/ 14/ 16 1011.5S
$$

TC  - TEMPERATURE IN CELSIUS
VSB - VISIBILITY IN STATUTE MILES
WCI - WIND CHILL INDEX
HX  - HEAT INDEX





USA.gov is the U.S. government's official web portal to all federal, state and local government web resources and services.